Location: Quaker Farms
(41.4276°N, 73.1557°W)
Time: 23:13:19
(UTC+00:00)

Vanguard 1 - Pass Details

Date: 17 June 2021
Orbit: 651 x 3832 km, 34.2° (Epoch: 26 July)

Event Time Altitude Azimuth Distance (km) Brightness Sun altitude
Rises 08:21:57 0° 279° (W) 6,404 13.9 -9.2°
Reaches altitude 10° 08:27:27 10° 272° (W) 4,818 13.2 -8.5°
Maximum altitude 08:37:23 30° 218° (SW) 2,435 11.5 -7.0°
Drops below altitude 10° 08:43:34 10° 159° (SSE) 2,922 12.3 -6.2°
Sets 08:46:03 0° 147° (SSE) 3,602 12.9 -5.8°
